Baker, OR

10:34 PM PDT on June 22, 2018 (GMT -0700)
Baker City Municipal

Weather History for KBKE - August, 2016

Change the Weather History Date:

Friday, August 19, 2016

  Actual Average Record
Temperature  
Mean Temperature 67 °F 64 °F  
Max Temperature 86 °F 84 °F 104 °F (1961)
Min Temperature 47 °F 45 °F 36 °F (1944)
Degree Days  
Heating Degree Days 0 3  
Month to date heating degree days 37 35  
Since 1 June heating degree days 314 331  
Since 1 July heating degree days 122 105  
Cooling Degree Days 2 2  
Month to date cooling degree days 34 51  
Year to date cooling degree days 124 144  
Since 1 June cooling degree days 124 142  
Growing Degree Days 18 (Base 50)    
Moisture  
Dew Point 41 °F    
Average Humidity 43    
Maximum Humidity 63    
Minimum Humidity 23    
Precipitation  
Precipitation 0.00 in 0.02 in 0.61 in (1965)
Month to date precipitation 0.12 0.41  
Year to date precipitation 3.63 6.77  
Sea Level Pressure  
Sea Level Pressure 29.99 in    
Wind  
Wind Speed 10 mph (WNW)    
Max Wind Speed 25 mph    
Max Gust Speed 31 mph    
Visibility 10 miles    
Events      
T = Trace of Precipitation, MM = Missing Value Source: NWS Daily Summary

Daily Weather History Graph

Daily Weather History Graph

Search for Another Location

Airport or City:

Astronomy

Aug. 19, 2016 Rise Set
Actual Time 5:58 AM PDT 7:49 PM PDT
Civil Twilight 5:27 AM PDT 8:21 PM PDT
Nautical Twilight 4:49 AM PDT 8:59 PM PDT
Astronomical Twilight 4:07 AM PDT 9:40 PM PDT
Moon 8:40 PM PDT (8/19) 7:26 AM PDT (8/19)
Length of Visible Light 14h 53m
Length of Day
13h 51m
Full, 97% of the Moon is Illuminated
Aug 19
Full
Aug 24
Last Quarter
Sep 1
New
Sep 9
First Quarter
Sep 16
Full

Hourly Weather History & Observations

Time (PDT) Temp. Dew Point Humidity Pressure Visibility Wind Dir Wind Speed Gust Speed Precip Events Conditions
12:53 AM 60.1 °F 39.0 °F 46% 29.97 in 10.0 mi WNW 9.2 mph - N/A   Clear
1:53 AM 54.0 °F 39.9 °F 59% 29.97 in 10.0 mi Calm Calm - N/A   Clear
2:53 AM 53.1 °F 39.0 °F 59% 29.97 in 10.0 mi Calm Calm - N/A   Clear
3:53 AM 51.1 °F 39.9 °F 66% 29.97 in 10.0 mi SSE 3.5 mph - N/A   Clear
4:53 AM 57.0 °F 36.0 °F 45% 29.97 in 10.0 mi Calm Calm - N/A   Clear
5:53 AM 54.0 °F 37.0 °F 53% 30.00 in 10.0 mi SSW 4.6 mph - N/A   Clear
6:53 AM 60.1 °F 36.0 °F 41% 30.01 in 10.0 mi WSW 5.8 mph - N/A   Clear
7:53 AM 66.0 °F 41.0 °F 40% 30.02 in 10.0 mi SW 4.6 mph - N/A   Clear
8:53 AM 72.0 °F 42.1 °F 34% 30.02 in 10.0 mi South 6.9 mph - N/A   Clear
9:53 AM 77.0 °F 39.9 °F 26% 30.02 in 10.0 mi NW 18.4 mph - N/A   Clear
10:53 AM 79.0 °F 39.9 °F 25% 30.02 in 10.0 mi NW 24.2 mph 29.9 mph N/A   Clear
11:53 AM 82.0 °F 43.0 °F 25% 30.01 in 10.0 mi NW 19.6 mph 27.6 mph N/A   Clear
12:53 PM 82.9 °F 44.1 °F 25% 30.01 in 10.0 mi NW 18.4 mph 26.5 mph N/A   Clear
1:53 PM 84.9 °F 43.0 °F 23% 30.00 in 10.0 mi NNW 16.1 mph 27.6 mph N/A   Clear
2:53 PM 86.0 °F 45.0 °F 24% 29.99 in 10.0 mi NW 17.3 mph 26.5 mph N/A   Clear
3:53 PM 84.9 °F 42.1 °F 22% 29.98 in 10.0 mi NW 19.6 mph 25.3 mph N/A   Clear
4:53 PM 84.0 °F 42.1 °F 23% 29.96 in 10.0 mi NW 16.1 mph 26.5 mph N/A   Clear
5:53 PM 81.0 °F 41.0 °F 24% 29.97 in 10.0 mi NW 15.0 mph 24.2 mph N/A   Clear
6:53 PM 77.0 °F 39.9 °F 26% 29.96 in 10.0 mi WNW 12.7 mph - N/A   Clear
7:53 PM 70.0 °F 39.9 °F 33% 29.96 in 10.0 mi WNW 10.4 mph - N/A   Clear
8:53 PM 63.0 °F 42.1 °F 46% 29.99 in 10.0 mi WNW 9.2 mph - N/A   Clear
9:53 PM 60.1 °F 42.1 °F 51% 30.00 in 10.0 mi Calm Calm - N/A   Clear
10:53 PM 59.0 °F 41.0 °F 51% 30.00 in 10.0 mi Calm Calm - N/A   Clear
11:53 PM 55.0 °F 42.1 °F 62% 30.00 in 10.0 mi SSW 3.5 mph - N/A   Clear